www.pogodaiklimat.ru

Погода и климат >> Архив погоды >> Россия >> Тува >> Кызыл


АРХИВ ПОГОДЫ в Кызыле

Время (UTC), дата Ветер
(напр.,м/с)
 
Видим.   Явления Облачность Т
(С)
Тd
(С)
f
(%)
Тe
(С)
Тes
(С)
Комфортность P
(гПа)
Po
(гПа)
Тmin
(С)
Tmax
(С)
R
(мм)
R24
(мм)
S
(см)
18 12.07 В 1 10 км ясно +19.0 +9.1 53 +21 +21 комфорт 1001.4 930.9
21 12.07 СВ 1 50 км ясно +15.5 +8.9 65 +16 +16 по сезону 1003.1 931.6
00 13.07 штиль 0 50 км 1/1 1000 м
[Cu med, cong]
+17.8 +10.5 62 +18 +21 тепло 1003.3 932.4 +14.8
03 13.07 СВ 1 50 км 1/1 1000 м
[Cu hum]
+25.0 +9.8 38 +26 +38 жарко 1001.3 932.2
06 13.07 ЮЗ 2 50 км 3/1 1000 м
[Cu med, cong Ci fib]
+31.3 +8.8 25 +30 +45 жарко 997.5 930.0
09 13.07 З 2 50 км 4/3 1000 м
[Cu hum Ci fib]
+32.4 +2.9 15 +30 +36 жарко 995.6 928.3
12 13.07 С 1 50 км 8/1 1000 м
[Cu hum Ci fib]
+32.4 +4.4 17 +30 +31 жарко 994.4 927.2 +33.2
15 13.07 штиль 0 10 км 8/4 1000 м
[Cb cap Ac trans Ci fib]
+25.1 +7.3 32 +25 +25 комфорт 996.5 927.6
18 13.07 штиль 0 10 км ясно +19.4 +9.9 54 +20 +20 тепло 998.6 928.4
21 13.07 С 1 20 км 1/1 1000 м
[Sc]
+16.4 +8.8 61 +17 +17 по сезону 999.4 928.4
00 14.07 штиль 0 50 км 6/0
[Ci fib]
+19.5 +10.7 57 +20 +23 тепло 998.8 928.6 +15.1
03 14.07 С 1 50 км 6/0
[Ci fib]
+25.4 +11.3 41 +27 +39 жарко 997.3 928.5
06 14.07 З 1 50 км 9/1 1000 м
[Cu hum Ci sp]
+31.2 +8.4 24 +30 +44 жарко 993.6 926.3
09 14.07 С 2 50 км 8/1 1000 м
[Cu hum Ac trans Ci sp]
+34.0 +7.6 20 +32 +38 жарко 990.6 924.1
12 14.07 С 3 50 км 9/3 1000 м
[Cu Sc Ac trans Ci fib]
+33.0 +7.6 21 +31 +32 жарко 990.8 924.0 +34.9
15 14.07 В 3
{12}
10 км 9/6 1000 м
[Cb cap Ac trans Ci fib]
+27.1 +12.1 39 +28 +28 жарко 994.1 926.0
18 14.07 Ю 3 10 км 10/10 1000 м
[Cb cap]
+22.9 +13.2 54 +26 +26 жарко 997.4 928.1
21 14.07 ЮЗ 1 10 км 9/8 1000 м
[Cb cap Ci fib]
+20.6 +13.3 63 +24 +24 комфорт 997.0 927.2
00 15.07 Ю 1 50 км {ливн. осадки} 10/10 1000 м
[Cb cap]
+21.1 +15.0 68 +24 +24 комфорт 997.4 927.7 +20.6 0.0
03 15.07 В 1 50 км {ливн. осадки} 9/6 1000 м
[Cb cap Ac trans Ci sp]
+21.8 +15.3 67 +25 +29 комфорт 998.5 929.0
06 15.07 ЮЗ 1 50 км {ливн. осадки} 9/5 1000 м
[Cb cap Ac trans Ci fib]
+25.4 +14.4 51 +28 +34 жарко 996.8 928.2
09 15.07 ЮЗ 5
{10}
50 км 9/4 1000 м
[Cb cap Ci fib]
+27.6 +14.3 44 +30 +32 жарко 994.9 926.8
12 15.07 С 6-14
{14}
50 км гроза без осадков 9/8 1000 м
[Cb cap Ac trans Ci fib]
+22.0 +13.6 59 +25 +25 комфорт 996.7 927.3 +28.6 0.0
15 15.07 С 2
{15}
10 км слабый ливневой дождь {гроза} 10/10 1000 м
[Cb cap]
+18.8 +15.2 80 +20 +20 прохладно 999.7 929.4
18 15.07 СЗ 2
{10}
10 км {гроза, ливн. осадки} 8/5 1000 м
[Cb cap Ac trans]
+18.5 +14.7 79 +20 +20 тепло 999.8 929.4
21 15.07 штиль 0 20 км 10/9 1000 м
[Cb cap Ac und]
+17.8 +15.2 85 +18 +18 по сезону 1000.2 929.6
00 16.07 З 1 50 км 9/5 1000 м
[Cb cap Ac cast]
+18.6 +15.2 81 +21 +21 комфорт 1000.0 929.6 +17.8 2
03 16.07 З 1 50 км 9/8 1000 м
[Cb cap Ac trans Ci sp]
+21.4 +15.4 69 +25 +27 комфорт 999.2 929.5
06 16.07 З 1 50 км 10/10 1000 м
[Cb cap]
+24.2 +15.1 57 +27 +27 жарко 997.3 928.4
09 16.07 СЗ 3 50 км 9/6 1000 м
[Cb cap Ac trans Ci fib]
+27.3 +15.0 47 +30 +32 душно 995.2 927.1
12 16.07 Ю 2 50 км в посл. час гроза {ливн. осадки} 9/8 1000 м
[Cb cap Ac trans Ci sp]
+24.2 +15.8 59 +27 +28 жарко 996.1 927.3 +28.3 0.0
15 16.07 ЮЗ 1 10 км {гроза} 9/8 1000 м
[Cb cap Ac trans Ci fib]
+19.5 +14.7 74 +22 +22 комфорт 998.4 928.4
18 16.07 С 1 4000 м ливневой дождь {гроза} 10/10 1000 м
[Cb cap]
+18.8 +15.6 82 +21 +21 комфорт 999.6 929.3
21 16.07 ЮЗ 2 10 км {ливн. осадки} 10/10 1000 м
[Cb cap]
+17.8 +16.5 92 +18 +18 по сезону 999.6 929.1
00 17.07 штиль 0 50 км {ливн. осадки} 10/8 1000 м
[Cb cap Ac trans]
+18.4 +16.1 86 +19 +19 тепло 999.5 929.1 +17.7 0.6
03 17.07 ЮЗ 1 10 км слабый ливневой дождь 10/10 600 м
[Cb cap]
+18.0 +17.0 94 +19 +19 по сезону 999.5 929.1
06 17.07 ЮВ 2 20 км слабый ливневой дождь 10/10 600 м
[Cb cap]
+19.0 +18.0 94 +21 +21 комфорт 998.7 928.6
09 17.07 СЗ 3 50 км {ливн. осадки} 9/8 600 м
[Cb cap Ac trans]
+22.6 +16.0 66 +27 +28 душно 997.0 927.7
12 17.07 С 2
{11}
10 км ливневой дождь 10/10 600 м
[Cb cap]
+19.2 +17.6 90 +22 +22 комфорт 998.0 928.0 +23.6 5
15 17.07 Ю 1 10 км {ливн. осадки} 10/10 1000 м
[Cb cap]
+19.2 +17.4 89 +22 +22 комфорт 998.4 928.4
18 17.07 СЗ 1 10 км слабый ливневой дождь 10/10 1000 м
[Cb cap]
+18.2 +16.9 92 +20 +20 тепло 999.4 929.0
21 17.07 З 2 10 км слабый ливневой дождь 10/10 1000 м
[Cb cap]
+16.9 +15.7 93 +17 +17 по сезону 999.7 929.0
00 18.07 З 2 10 км ливневой дождь 10/10 600 м
[Cb cap]
+16.0 +15.0 94 +16 +16 по сезону 1001.2 930.2 +16.0 28
03 18.07 СЗ 1 20 км слабый ливневой дождь 10/10 1000 м
[Cb cap]
+17.1 +15.4 90 +18 +18 прохладно 1001.8 931.0
06 18.07 СЗ 1 50 км {ливн. осадки} 9/8 1000 м
[Cb cap Ac trans Ci fib]
+20.0 +15.5 75 +23 +26 комфорт 1000.8 930.7
09 18.07 С 1 50 км 9/5 1000 м
[Cb cap Ac trans Cs]
+22.5 +15.1 63 +26 +30 жарко 999.9 930.4
12 18.07 С 3 50 км 9/4 1000 м
[Cb cap Ac trans Ci fib]
+22.0 +14.7 63 +25 +26 комфорт 1000.3 930.7 +23.3 9
15 18.07 С 2 10 км 9/6 1000 м
[Cb cap Ac trans Ci fib]
+19.4 +12.9 66 +21 +21 комфорт 1002.4 932.0
18 18.07 СЗ 2 10 км 8/5 1000 м
[Cb cap Ac trans Ci fib]
+18.0 +12.6 71 +19 +19 тепло 1002.8 932.0
21 18.07 З 1 10 км 10/10 600 м
[Cb cap]
+16.7 +12.8 78 +18 +18 по сезону 1003.1 932.0
00 19.07 СЗ 2 50 км 10/10 600 м
[Cb cap]
+16.7 +12.6 77 +17 +17 по сезону 1002.0 931.0 +16.4
03 19.07 ЮЗ 2 10 км слабый ливневой дождь 10/10 600 м
[Cb cap]
+15.8 +14.6 93 +16 +16 холодно 1002.3 931.1
06 19.07 З 4 50 км {ливн. осадки} 9/8 1000 м
[Cb cap Ac trans Ci fib]
+20.2 +14.6 70 +23 +24 комфорт 1000.4 930.4
09 19.07 ЮЗ 5 50 км 9/9 1000 м
[Cb cap Ci fib]
+18.3 +14.1 76 +18 +19 очень
холодно
1000.6 930.1
12 19.07 ЮЗ 6
{11}
50 км слабый ливневой дождь 10/8 600 м
[Cb cap Ac trans]
+15.8 +13.7 87 +14 +14 очень
холодно
1002.1 930.9 +20.8 16

 

Местоположение метеостанции Кызыл (Тува, Россия): широта 51.72 долгота 94.50 высота над уровнем моря 632 м.

В архиве по умолчанию представлена погода в Кызыле за последнюю неделю. Архивные данные за месяц целиком и за предыдущие месяцы, начиная с января 2011 года, Вы можете получить, выбрав интересующий диапазон дат из раскрывающегося списка и нажав кнопку "Ввод!".


*Определитесь, кто Вы:
робот инопланетянин человек

Внимание! Время в таблицах - всемирное. Для получения местного времени необходимо прибавить поправку, которая в Кызыле равна 7 ч.

Смотрите также архив погоды в соседних городах и на ближайших метеорологических станциях:

Погода в Туране (Тува, Россия) (61 км)
Погода в Сосновке (Тува, Россия) (63 км)
Погода в Сарыг-Сепе (Тува, Россия) (78 км)
Погода в Хову-Аксы (Тува, Россия) (81 км)
Погода в Нижнеусинском (Красноярский край, Россия) (118 км)
Погода в Шагонаре (Тува, Россия) (127 км)
Погода в Тоора-Хем (Тува, Россия) (138 км)
Погода в Оленьей Речке (Красноярский край, Россия) (148 км)
Погода в Усть-Усе (Красноярский край, Россия) (159 км)
Погода в Эрзине (Тува, Россия) (167 км)

Пояснения к столбцам:

Ветер - указаны скорость ветра в м/с - средняя за 10 мин, порывы в срок и между сроками (в фигурных скобках) и направление, откуда дует ветер: С - северный, СВ - северо-восточный, В - восточный, ЮВ - юго-восточный, Ю - южный, ЮЗ - юго-западный, З - западный, СЗ - северо-западный.
Видимость - горизонтальная дальность видимости в метрах или километрах. При видимости от 1 до 10 км при отсутствии осадков обычно наблюдается дымка, при ухудшении видимости до 1 км и менее - туман. В сухую погоду видимость может ухудшаться дымом, пылью или мглою.
Явления - указаны атмосферные явления, наблюдавшиеся в срок или в последний час перед сроком; фигурными скобками обозначены явления, наблюдавшиеся между сроками (за 1-3 часа до срока); квадратными скобками обозначены град или гололедные отложения с указанием их диаметра в мм.
Облачность - указаны через наклонную черту общая и нижняя облачность в баллах и высота нижней границы облаков в метрах; квадратными скобками обозначены формы облаков: Ci - перистые, Cs - перисто-слоистые, Cc - перисто-кучевые, Ac - высококучевые, As - высокослоистые, Sc - слоисто-кучевые, Ns - слоисто-дождевые, Cu - кучевые, Cb - кучево-дождевые. Подробнее классификацию облаков см. в Атласе облаков (PDF).
T - Температура воздуха - температура, измеренная на высоте 2 м над землей.
Td - Температура точки росы - температура, при понижении до которой содержащийся в воздухе водяной пар достигнет насыщения.
f - Относительная влажность воздуха - влажноcть воздуха, измеренная на высоте 2 м над землей.
Te - Эффективная температура - температура, которую ощущает одетый по сезону человек в тени. Характеристика душности погоды. При расчете учитывается влияние влажности воздуха и скорости ветра на теплоощущения человека.
Tes - Эффективная температура на солнце - температура, которую ощущает человек, с поправкой на солнечный нагрев. Характеристика знойности погоды. Зависит от высоты солнца над горизонтом, облачности и скорости ветра. Ночью, в пасмурную погоду, а также при ветре 12 м/с и более поправка равна нулю.
P - Атмосферное давление - приведенное к уровню моря атмосферное давление.
Po - Атмосферное давление - измеренное на уровне метеостанции атмосферное давление.
Tmin - Минимальная температура - минимум температуры воздуха на высоте 2 м над землей.
Tmax - Максимальная температура - максимум температуры воздуха на высоте 2 м над землей.
R - Количество осадков - Количество выпавших осадков за период времени, мм. При наведении курсора мыши на число - период времени, за который выпало указанное количество осадков.
R24 - Количество осадков - Количество выпавших осадков за 24 часа, мм.
S - Снежный покров - Высота снежного покрова, см. При наведении курсора мыши на число - состояние снежного покрова и степень покрытия местности в баллах.